EW8780 Weather Reports


Display with metric or nautical units.
time (UTC)temp
F
wind
direction
speed
MPH
gust
MPH
rain 1hr
in
rain 24hr
in
rain mn
in
humidity
%
barometer
mb
20260510090026 54 215 0.0 0.0 0.00 0.01 0.00 95 1014.4
20260510084517 54 215 0.0 0.0 0.00 0.01 0.00 95 1014.4
20260510083016 54 215 0.0 0.0 0.00 0.01 0.00 94 1014.3
20260510081515 54 215 0.0 0.0 0.00 0.01 0.00 95 1014.3
20260510080017 54 215 0.0 0.0 0.00 0.01 0.00 94 1014.1
20260510074514 54 215 0.0 0.0 0.00 0.01 0.00 94 1014.1
20260510073013 54 215 0.0 0.0 0.01 0.01 0.00 94 1014.1
20260510071517 54 215 0.0 0.0 0.01 0.01 0.00 94 1014.1
20260510070010 54 215 0.0 0.0 0.01 0.01 0.00 94 1014.3
20260510064525 54 215 0.0 0.0 0.01 0.01 0.01 93 1014.5
20260510063008 54 215 0.0 0.0 0.00 0.00 0.00 93 1014.7
20260510061516 54 215 0.0 0.0 0.00 0.00 0.00 93 1014.9
20260510060009 54 215 0.0 0.0 0.00 0.00 0.00 92 1014.8
20260510054506 54 215 0.0 0.0 0.00 0.00 0.00 92 1014.6
20260510053017 54 215 0.0 0.0 0.00 0.00 0.00 92 1014.5
20260510051511 55 215 0.0 0.0 0.00 0.00 0.00 92 1014.7
20260510050004 55 215 0.0 0.0 0.00 0.00 0.00 91 1014.7
20260510044507 55 215 0.0 0.0 0.00 0.00 0.00 91 1014.6
20260510043003 55 215 0.0 0.0 0.00 0.00 0.00 91 1014.5
20260510041508 55 215 0.0 0.0 0.00 0.00 0.00 90 1014.4
20260510040002 55 215 0.0 0.0 0.00 0.00 0.00 90 1014.3
20260510034501 55 215 0.0 0.0 0.00 0.00 0.00 90 1014.0
20260510033136 55 215 0.0 0.0 0.00 0.00 0.00 90 1014.0
20260510031600 56 215 0.0 0.0 0.00 0.00 0.00 89 1014.0
20260510030059 56 215 0.0 2.0 0.00 0.00 0.00 88 1014.1
20260510024606 56 215 0.0 2.0 0.00 0.00 0.00 88 1014.0
20260510023058 56 215 0.0 2.0 0.00 0.00 0.00 87 1013.9
20260510021557 56 215 0.0 4.0 0.00 0.00 0.00 87 1014.0
20260510020058 56 212 2.0 5.0 0.00 0.00 0.00 87 1014.1
20260510014556 57 206 1.0 4.0 0.00 0.00 0.00 86 1014.2
20260510013055 57 215 1.0 4.0 0.00 0.00 0.00 85 1014.0
20260510011555 58 190 0.0 3.0 0.00 0.00 0.00 85 1014.1
20260510010054 58 157 1.0 3.0 0.00 0.00 0.00 85 1014.1
20260510004553 58 153 0.0 3.0 0.00 0.00 0.00 84 1014.2
20260510003103 59 217 2.0 5.0 0.00 0.00 0.00 84 1014.2
20260510001551 58 217 2.0 5.0 0.00 0.00 0.00 84 1014.2
20260510000054 58 194 2.0 5.0 0.00 0.00 0.00 85 1014.3
20260509234554 58 200 2.0 6.0 0.00 0.00 0.00 85 1014.3
20260509233049 58 208 3.0 5.0 0.00 0.00 0.00 84 1014.3
20260509231553 58 203 2.0 5.0 0.00 0.00 0.00 85 1014.3
20260509230052 58 230 1.0 5.0 0.00 0.00 0.00 85 1014.4
20260509224556 59 198 3.0 7.0 0.00 0.00 0.00 84 1014.5
20260509223051 58 225 3.0 7.0 0.00 0.00 0.00 85 1014.5
20260509221546 59 203 3.0 6.0 0.00 0.00 0.00 84 1014.5
20260509220046 59 204 2.0 6.0 0.00 0.00 0.00 83 1014.6
20260509214545 60 229 2.0 7.0 0.00 0.00 0.00 85 1014.6
20260509213045 60 202 2.0 5.0 0.00 0.00 0.00 83 1014.5
20260509211545 60 218 4.0 8.0 0.00 0.00 0.00 82 1014.5
20260509210048 59 221 2.0 6.0 0.00 0.00 0.00 83 1014.5
20260509204543 61 228 2.0 4.0 0.00 0.00 0.00 81 1014.5
20260509203052 59 211 1.0 3.0 0.00 0.00 0.00 83 1014.6
20260509201540 58 190 2.0 5.0 0.00 0.00 0.00 85 1014.9
20260509200039 58 38 1.0 4.0 0.00 0.00 0.00 84 1015.1
20260509194539 58 206 3.0 9.0 0.00 0.00 0.00 86 1015.2
20260509193039 59 238 1.0 7.0 0.00 0.00 0.00 85 1015.0
20260509191538 60 238 2.0 5.0 0.00 0.00 0.00 86 1014.7
20260509190036 59 233 2.0 8.0 0.00 0.00 0.00 87 1014.8
20260509184543 58 175 3.0 9.0 0.00 0.00 0.00 90 1014.9
20260509183031 56 211 4.0 8.0 0.00 0.00 0.00 90 1015.0
20260509181527 56 173 2.0 8.0 0.00 0.00 0.00 93 1015.1
20260509180030 55 192 3.0 6.0 0.00 0.00 0.00 93 1015.1
20260509174529 55 209 1.0 4.0 0.00 0.00 0.00 95 1014.8
20260509173025 54 215 1.0 4.0 0.00 0.00 0.00 96 1014.6
20260509171522 53 211 2.0 5.0 0.00 0.00 0.00 96 1014.6
20260509170036 53 202 0.0 0.0 0.00 0.00 0.00 96 1014.5
20260509164518 53 218 0.0 0.0 0.00 0.00 0.00 96 1014.5
20260509163024 52 219 0.0 0.0 0.00 0.00 0.00 96 1014.7
20260509161518 52 209 0.0 0.0 0.00 0.00 0.00 96 1014.8
20260509160017 53 184 0.0 0.0 0.00 0.00 0.00 96 1015.0
20260509154517 52 234 0.0 0.0 0.00 0.00 0.00 96 1015.0
20260509153114 51 124 0.0 0.0 0.00 0.00 0.00 96 1014.8
20260509151513 51 61 0.0 0.0 0.00 0.00 0.00 96 1014.8
20260509150011 51 44 0.0 0.0 0.00 0.00 0.00 96 1014.7
20260509144515 50 43 0.0 0.0 0.00 0.00 0.00 96 1014.8
20260509143010 49 43 0.0 0.0 0.00 0.00 0.00 96 1014.7
20260509141505 49 43 0.0 0.0 0.00 0.00 0.00 96 1014.7
20260509140059 49 43 0.0 0.0 0.00 0.00 0.00 96 1014.8
20260509134556 48 43 0.0 0.0 0.00 0.00 0.00 96 1014.8
20260509133105 49 43 0.0 0.0 0.00 0.00 0.00 96 1014.7
20260509131549 48 43 0.0 0.0 0.00 0.00 0.00 96 1014.5
20260509130049 47 43 0.0 0.0 0.00 0.00 0.00 96 1014.8
20260509124550 47 43 0.0 0.0 0.00 0.00 0.00 96 1014.7
20260509123048 46 43 0.0 0.0 0.00 0.00 0.00 96 1014.6
20260509121551 46 43 0.0 0.0 0.00 0.00 0.00 95 1014.6
20260509120043 47 43 0.0 0.0 0.00 0.00 0.00 96 1014.7
20260509114543 47 43 0.0 0.0 0.00 0.01 0.00 95 1014.7
20260509113043 47 43 0.0 0.0 0.00 0.01 0.00 95 1015.0
20260509111540 46 43 0.0 0.0 0.00 0.01 0.00 95 1015.0
20260509110037 47 43 0.0 0.0 0.00 0.01 0.00 95 1014.9
20260509104553 47 43 0.0 0.0 0.00 0.01 0.00 95 1015.0
20260509103035 47 43 0.0 0.0 0.00 0.01 0.00 95 1015.1
20260509101537 47 43 0.0 0.0 0.00 0.01 0.00 95 1015.2
20260509100030 47 43 0.0 0.0 0.00 0.01 0.00 95 1015.2
20260509094533 48 43 0.0 0.0 0.00 0.02 0.00 95 1015.4
20260509093026 48 43 0.0 0.0 0.00 0.02 0.00 95 1015.7
20260509091527 48 43 0.0 0.0 0.00 0.02 0.00 95 1015.8